Location: Albany
(35.0170°S, 117.8920°E)
Time: 01:15:05
(UTC+08:00)

Explorer 7 - Pass Details

Date: 28 January 2021
Orbit: 484 x 677 km, 50.3° (Epoch: 01 March)

Event Time Altitude Azimuth Distance (km) Brightness Sun altitude
Rises 18:27:27 0° 230° (SW) 3,011 11.9 9.1°
Reaches altitude 10° 18:31:15 10° 201° (SSW) 2,061 10.4 8.3°
Maximum altitude 18:33:18 13° 175° (S) 1,869 9.7 7.9°
Drops below altitude 10° 18:35:19 10° 149° (SSE) 2,011 9.6 7.5°
Sets 18:38:55 0° 119° (ESE) 2,864 10.1 6.8°
